sat.trackr.live / text

‹ back to catalog

CYGNUS NG-24

NORAD 68689 · 2026-079A

PAYLOAD ACTIVE UNKNOWN

§ Identity

Operator
Country
US
Launch date
2026-04-11
Launch site
AFETR
Launch vehicle
Mass (kg)
RCS (m²)

Purposes: station

External: N2YO · Heavens-Above · Gunter

§ Orbital elements

Epoch: 2026-05-24T20:12:03.198816Z

Period
92.94 min
Inclination
51.6327°
Eccentricity
0.0007493
Mean motion
15.49354393 rev/d
Perigee alt
413.5 km
Apogee alt
423.7 km
Semi-major
6,796.8 km
B*
1.6754e-4
RAAN
55.6720°
Arg perigee
94.5162°
Mean anomaly
265.6683°
Rev number
56,818

§ Raw data

CYGNUS NG-241 68689U 26079A   26144.84170369  .00008909  00000+0  16754-3 0  99972 68689  51.6327  55.6720 0007493  94.5162 265.6683 15.49354393568188

JSON: /api/v1/satellites/68689 · /tle

For live sub-satellite position, see the globe view (requires WebGL).

§ Visibility from observer

Set your observer location to see the next 7 days of passes ≥ 10°. The values pass through the URL so the page stays shareable.

No JS? Fill the form by hand. The geolocation button needs JavaScript.